Wind_Speed
55 54 56 47 43 44 42 40 32 35 39 41 38 44 30 30 35 42 49 50 48 46 53 51 43 37 32 33 37 36 43 42 36 40 33 31 33 23 28 26 31 27 29 23
54 59 50 45 46 48 44 41 36 38 39 40 40 26 25 25 30 37 43 47 45 42 45 47 44 43 45 42 45 46 46 44 41 39 38 35 40 44 35 34 31 31 28 19
57 49 43 45 46 41 40 40 38 39 39 37 32 29 22 8 17 30 36 41 42 40 41 43 42 44 44 49 53 50 45 45 43 40 33 36 46 52 36 22 32 32 31 25
47 43 39 33 34 39 42 42 41 35 30 20 23 33 22 22 15 16 26 30 33 31 32 35 37 37 38 39 38 40 41 44 41 38 37 34 45 52 57 31 28 35 23 31
39 35 31 34 36 40 40 38 28 22 15 16 10 16 28 24 15 8 21 18 17 23 26 28 30 33 34 36 37 40 41 41 39 39 32 32 44 40 52 41 37 40 41 15
32 31 35 35 34 37 30 21 20 20 17 13 16 15 17 23 20 10 24 10 17 17 14 15 21 25 29 31 33 32 31 25 22 26 26 33 47 42 40 49 47 45 39 34
32 35 33 32 32 29 22 19 15 25 18 17 20 22 18 16 16 27 30 30 23 18 21 20 20 22 25 26 28 31 31 24 20 14 11 23 20 35 40 38 36 46 44 39
34 32 31 30 29 24 21 17 18 29 21 25 19 19 18 20 19 20 19 22 23 18 20 18 17 16 11 9 11 16 24 24 22 11 17 12 19 20 35 44 47 35 40 43
30 30 28 25 23 21 20 21 32 32 15 28 24 24 19 15 12 11 11 15 11 14 15 12 10 11 10 7 6 4 15 22 25 15 19 17 22 24 29 34 37 32 31 35
26 25 23 20 16 14 13 18 24 30 25 25 23 23 19 12 11 7 9 7 8 11 13 9 7 7 6 4 10 5 9 19 28 20 21 24 20 28 27 29 39 42 42 39
24 21 16 12 8 6 17 22 21 20 20 18 22 24 19 18 18 19 16 12 2 7 7 3 5 3 4 4 1 5 4 9 17 25 25 13 18 26 24 22 29 34 36 37
22 17 14 10 10 11 12 12 14 16 17 15 19 20 19 19 18 20 21 17 14 17 7 5 7 5 7 3 10 2 8 10 11 10 8 8 13 21 28 27 26 29 33 36
17 15 16 14 15 14 13 17 17 16 13 15 13 14 21 17 20 24 21 22 20 17 13 11 12 9 10 8 5 5 3 15 9 7 7 8 3 14 19 27 28 28 31 36
16 16 15 18 17 16 17 17 17 15 12 14 17 19 18 17 17 23 25 22 18 16 15 12 13 9 8 7 7 10 4 12 4 2 11 4 11 12 16 18 24 23 27 32
13 15 15 19 19 19 18 18 16 13 14 17 14 14 16 16 13 16 23 20 18 17 16 14 13 10 11 11 13 15 13 12 7 11 13 13 11 17 17 19 18 16 12 15
14 13 14 15 22 22 21 18 12 17 19 21 17 14 14 14 16 21 23 22 20 16 15 14 11 12 9 12 18 18 19 20 18 16 16 14 15 8 10 5 7 16 12 20
16 14 15 15 19 22 13 7 20 26 22 22 18 16 16 14 14 14 16 18 19 17 13 11 9 11 8 8 9 16 20 22 21 21 23 21 17 11 8 2 3 9 12 11
16 16 16 15 17 22 20 26 27 26 23 23 18 16 15 14 14 15 14 14 15 14 12 9 12 14 9 3 2 9 12 15 18 21 23 19 15 14 12 8 6 9 7 8
16 16 17 20 20 21 28 27 25 25 23 28 21 16 15 12 12 10 9 11 12 12 10 11 13 11 12 12 9 11 13 15 14 15 19 17 16 15 17 12 8 9 8 4
21 25 25 20 18 26 27 28 27 27 25 21 23 23 12 11 12 8 9 13 16 15 15 15 15 14 15 16 16 16 17 17 16 17 18 18 18 20 19 16 12 13 10 8
28 26 24 21 25 26 28 29 28 28 25 18 22 20 18 16 14 14 17 16 15 8 10 10 12 10 11 11 12 14 17 22 22 22 21 21 23 24 23 24 19 21 17 15
26 24 20 25 29 29 29 29 28 24 21 18 17 18 18 18 16 16 17 16 15 11 14 15 12 11 13 14 15 16 17 18 20 24 28 29 28 27 27 29 26 27 26 22
29 27 24 27 32 33 29 27 26 22 15 16 19 18 18 18 19 16 15 15 12 16 18 16 11 12 14 15 19 19 20 23 24 26 27 30 33 35 33 32 31 31 30 29
33 31 27 26 29 29 24 18 18 15 14 15 16 18 15 15 17 16 15 15 16 17 16 11 12 17 21 21 20 21 20 21 24 28 30 33 36 37 40 42 39 37 34 33
34 30 29 25 21 17 13 13 14 17 18 16 15 15 14 15 16 15 16 17 19 18 15 11 15 17 20 23 27 28 28 26 27 24 25 29 34 40 42 43 45 43 40 37
26 26 25 23 21 18 15 13 15 17 15 14 14 14 14 15 17 16 18 20 19 14 11 14 14 16 16 17 18 18 21 23 23 24 25 24 22 27 34 36 36 40 43 39
27 25 22 22 19 18 14 15 14 13 13 14 15 16 18 18 17 15 7 8 12 14 16 16 18 20 19 19 18 19 19 20 21 21 23 22 23 22 24 26 27 28 30 34
Wind_Direction
302 300 301 293 288 289 285 284 284 278 278 282 286 302 289 257 239 228 236 237 233 233 238 242 244 237 210 214 237 247 241 241 249 231 211 237 245 248 235 234 244 248 260 222
300 301 292 285 284 288 283 281 280 277 279 286 293 276 272 269 244 224 236 237 242 242 239 242 241 236 222 219 225 235 245 257 258 251 236 237 242 239 235 235 235 227 253 197
299 296 289 286 287 284 282 280 280 279 282 286 282 237 255 257 266 225 239 244 245 243 244 247 244 241 236 235 240 247 257 259 259 257 247 236 225 233 240 222 225 219 232 211
297 294 291 289 288 285 283 283 283 278 283 263 248 230 218 234 233 244 238 249 256 255 251 249 249 245 242 243 242 247 252 257 260 255 252 239 229 232 237 241 219 219 241 208
295 292 290 289 285 285 285 283 280 264 233 214 225 237 230 236 190 195 238 262 251 245 248 246 246 250 251 250 252 256 254 258 258 256 252 242 236 233 231 229 224 236 244 225
294 292 291 289 288 291 287 271 275 223 200 215 222 233 229 241 246 224 205 206 243 250 254 264 260 255 254 257 256 256 260 262 259 257 258 242 232 226 228 230 233 244 242 245
293 295 292 287 288 287 271 273 248 198 188 209 223 223 228 202 231 227 237 245 241 248 254 251 258 267 263 264 260 255 250 246 246 257 247 248 237 221 223 224 227 234 241 236
298 296 290 289 289 276 268 246 226 220 227 216 231 227 222 223 238 235 233 238 249 247 244 252 249 260 234 230 237 247 238 219 210 229 241 232 184 187 220 229 234 227 238 236
296 295 293 285 282 272 265 237 209 209 228 223 231 230 229 244 255 235 231 226 233 225 230 228 236 222 203 210 283 241 226 221 214 204 226 211 174 202 203 212 223 221 234 227
292 295 289 278 277 271 245 213 198 209 207 223 229 223 214 225 189 198 204 213 209 214 230 225 190 185 247 280 320 273 289 215 216 212 212 197 209 194 211 220 233 241 246 251
283 290 278 267 235 195 189 188 191 205 213 220 228 227 224 195 186 181 173 162 248 173 149 169 203 211 272 314 221 333 173 199 191 208 217 196 221 205 202 219 225 229 233 237
268 271 252 230 202 195 192 200 214 226 229 224 237 236 215 199 189 186 186 191 190 189 217 269 248 247 156 163 213 345 153 146 159 165 184 204 212 215 221 228 229 230 232 230
247 254 234 221 211 204 199 216 226 236 236 239 239 210 201 191 184 181 182 177 173 177 181 207 215 237 238 164 165 226 130 210 208 158 162 200 288 221 229 244 247 242 235 230
243 244 233 217 214 212 212 222 228 232 239 220 200 205 201 194 185 179 178 193 188 192 200 212 212 213 187 207 186 216 110 113 150 223 224 255 257 252 260 251 249 253 245 243
242 234 232 220 216 215 218 218 220 231 196 194 200 207 212 202 195 205 197 207 206 215 234 229 222 206 192 200 191 216 223 232 196 198 228 233 251 248 263 269 272 231 236 242
237 231 226 223 214 216 215 217 224 185 176 184 189 199 213 196 201 204 210 218 233 253 257 252 234 231 221 209 204 215 223 228 232 221 216 235 247 241 274 249 232 241 228 227
227 232 220 219 218 216 210 185 173 174 178 181 191 196 202 212 216 224 240 237 258 254 248 243 246 249 236 184 169 217 225 229 226 226 233 252 255 257 272 125 295 279 246 225
213 221 218 215 216 205 191 170 174 180 184 186 187 187 195 220 234 239 250 255 244 248 254 254 255 251 257 172 246 224 218 216 221 228 236 240 247 263 264 244 239 264 289 257
203 210 215 210 210 177 171 174 180 186 196 195 183 185 197 192 195 193 223 233 237 238 249 251 250 259 279 263 232 225 228 235 234 236 242 241 246 244 249 242 202 251 269 291
200 209 214 202 173 175 176 182 190 196 202 199 197 211 200 203 192 168 243 243 253 258 263 264 269 262 263 268 256 242 241 244 249 254 256 252 248 247 244 245 250 253 254 273
202 210 211 197 187 186 190 193 196 202 207 198 202 208 215 220 218 214 234 249 262 262 265 264 264 264 271 271 265 254 249 249 249 249 251 255 252 248 247 244 251 257 254 258
201 206 204 197 188 191 198 200 200 202 202 196 203 205 209 220 228 238 248 250 259 266 261 264 264 266 261 261 261 261 256 253 252 251 251 251 253 254 252 252 249 253 260 259
194 190 196 192 193 197 201 198 200 203 204 210 216 225 231 223 230 242 246 254 259 256 256 258 261 254 263 267 263 259 257 256 255 254 252 252 251 248 249 249 250 250 253 257
188 189 188 188 196 205 206 201 205 202 200 207 199 208 213 222 234 243 250 249 248 253 259 262 264 254 255 261 267 269 261 261 269 266 262 256 254 252 249 247 246 247 249 252
185 187 190 197 196 193 183 187 186 194 205 206 211 218 218 227 240 240 248 254 258 265 265 255 262 264 269 274 271 269 273 275 284 281 271 268 259 251 252 253 250 249 248 249
186 191 190 193 194 196 191 194 198 205 216 212 212 221 228 237 246 252 256 262 265 260 264 271 262 268 278 274 271 273 277 279 282 283 285 282 285 269 259 253 252 251 251 249
185 190 193 193 189 181 176 188 199 201 214 221 231 234 243 247 252 261 258 275 265 255 263 256 259 271 278 283 280 272 281 284 281 287 285 282 282 280 272 260 250 248 249 249
Height
5531 5526 5522 5517 5514 5512 5510 5514 5519 5516 5512 5511 5511 5510 5510 5515 5521 5527 5528 5529 5535 5545 5549 5554 5560 5566 5566 5566 5565 5564 5568 5574 5582 5589 5591 5595 5599 5600 5603 5601 5606 5609 5609 5613
5518 5513 5508 5505 5503 5500 5500 5502 5507 5504 5503 5502 5501 5502 5503 5503 5507 5514 5516 5520 5529 5535 5540 5541 5548 5553 5558 5553 5554 5554 5560 5565 5569 5574 5584 5589 5586 5591 5593 5593 5596 5600 5604 5610
5505 5499 5495 5493 5490 5488 5488 5490 5494 5493 5493 5493 5493 5495 5497 5498 5500 5503 5509 5515 5518 5523 5527 5530 5536 5539 5545 5547 5547 5549 5553 5555 5559 5562 5571 5573 5575 5576 5581 5583 5588 5592 5594 5597
5492 5488 5484 5482 5481 5478 5478 5479 5481 5481 5484 5483 5483 5486 5492 5492 5497 5499 5504 5508 5510 5514 5517 5521 5524 5529 5533 5536 5540 5542 5544 5544 5548 5553 5557 5562 5566 5569 5572 5574 5581 5584 5585 5589
5481 5478 5475 5474 5472 5468 5468 5469 5470 5470 5474 5476 5478 5482 5488 5488 5492 5494 5500 5502 5504 5506 5509 5513 5515 5520 5523 5527 5531 5531 5534 5536 5539 5542 5548 5551 5553 5558 5566 5571 5575 5576 5579 5588
5472 5470 5467 5464 5462 5459 5459 5460 5462 5463 5469 5472 5476 5479 5482 5484 5486 5490 5494 5495 5499 5502 5504 5506 5509 5512 5516 5519 5521 5523 5526 5529 5531 5533 5537 5539 5536 5550 5556 5565 5571 5573 5577 5584
5464 5461 5458 5455 5453 5451 5453 5454 5455 5460 5463 5466 5470 5475 5478 5481 5483 5486 5490 5492 5496 5498 5499 5502 5503 5506 5508 5510 5513 5515 5518 5522 5524 5528 5528 5527 5542 5546 5553 5557 5563 5564 5567 5573
5456 5453 5450 5448 5446 5444 5446 5448 5451 5456 5461 5464 5468 5471 5475 5477 5479 5482 5485 5487 5490 5492 5495 5497 5499 5501 5502 5504 5504 5505 5509 5515 5519 5520 5524 5527 5531 5536 5541 5547 5554 5557 5562 5567
5449 5446 5443 5442 5440 5439 5439 5441 5444 5451 5455 5462 5465 5469 5471 5473 5475 5478 5481 5483 5485 5489 5491 5493 5494 5496 5499 5502 5504 5504 5506 5510 5513 5517 5520 5523 5530 5531 5535 5539 5544 5550 5554 5560
5444 5441 5439 5437 5437 5436 5435 5438 5443 5447 5453 5458 5461 5464 5467 5470 5472 5475 5478 5480 5484 5487 5489 5491 5494 5497 5498 5498 5501 5504 5504 5506 5510 5515 5516 5519 5521 5527 5531 5537 5544 5544 5548 5553
5438 5437 5435 5435 5435 5435 5437 5441 5444 5448 5452 5456 5457 5459 5464 5466 5470 5472 5475 5479 5482 5486 5489 5492 5494 5496 5497 5499 5501 5502 5502 5504 5507 5512 5513 5519 5521 5525 5529 5533 5534 5538 5542 5545
5432 5433 5432 5433 5434 5436 5439 5441 5444 5446 5448 5454 5454 5457 5461 5464 5467 5471 5474 5476 5481 5484 5488 5491 5492 5494 5496 5497 5498 5500 5504 5505 5508 5512 5517 5518 5519 5523 5524 5526 5528 5530 5533 5536
5426 5428 5429 5431 5434 5436 5439 5440 5441 5444 5448 5451 5452 5456 5457 5462 5466 5469 5474 5477 5480 5483 5486 5487 5490 5491 5493 5493 5494 5497 5499 5504 5503 5512 5514 5516 5518 5521 5523 5523 5524 5525 5528 5529
5422 5424 5425 5428 5432 5434 5437 5439 5440 5444 5447 5448 5451 5453 5458 5462 5466 5470 5474 5476 5480 5483 5485 5487 5489 5492 5493 5494 5495 5496 5499 5503 5507 5508 5511 5512 5514 5515 5517 5518 5519 5521 5521 5523
5418 5420 5422 5425 5429 5431 5434 5436 5439 5442 5446 5447 5451 5455 5458 5463 5467 5471 5474 5477 5479 5482 5484 5487 5489 5491 5493 5495 5497 5497 5499 5502 5505 5507 5510 5511 5511 5512 5513 5513 5514 5515 5517 5518
5415 5417 5419 5421 5424 5427 5430 5434 5439 5442 5443 5446 5450 5455 5458 5462 5465 5469 5472 5475 5477 5478 5481 5484 5488 5490 5493 5494 5496 5497 5499 5501 5503 5505 5505 5506 5508 5510 5509 5510 5511 5512 5514 5515
5412 5414 5416 5418 5421 5425 5433 5437 5438 5441 5444 5448 5452 5455 5459 5463 5466 5469 5471 5474 5476 5477 5479 5482 5485 5488 5488 5492 5495 5496 5497 5498 5500 5502 5503 5504 5505 5507 5506 5508 5510 5508 5510 5512
5408 5411 5414 5416 5419 5421 5428 5432 5437 5441 5445 5449 5453 5457 5460 5463 5465 5467 5469 5472 5473 5476 5478 5481 5483 5484 5485 5489 5491 5492 5493 5494 5496 5497 5497 5500 5501 5504 5504 5506 5509 5507 5507 5508
5405 5408 5410 5412 5414 5422 5428 5432 5436 5440 5445 5448 5454 5458 5460 5463 5465 5467 5469 5471 5472 5475 5477 5478 5479 5482 5484 5484 5486 5487 5488 5490 5491 5494 5495 5497 5499 5501 5501 5502 5506 5505 5506 5506
5401 5403 5406 5411 5419 5422 5427 5431 5434 5437 5441 5447 5454 5455 5459 5462 5464 5466 5468 5468 5470 5473 5474 5474 5476 5477 5478 5480 5481 5483 5484 5486 5488 5490 5491 5493 5494 5495 5497 5498 5502 5502 5502 5503
5396 5400 5405 5413 5417 5422 5425 5428 5432 5436 5440 5447 5450 5454 5456 5460 5462 5463 5465 5466 5467 5470 5471 5471 5472 5474 5474 5475 5476 5478 5479 5480 5482 5484 5485 5487 5488 5491 5493 5494 5497 5496 5498 5500
5396 5401 5406 5410 5414 5418 5422 5425 5430 5436 5440 5445 5448 5451 5454 5457 5458 5459 5461 5462 5465 5467 5467 5467 5468 5469 5469 5471 5472 5473 5473 5474 5476 5476 5478 5479 5481 5483 5485 5487 5490 5491 5492 5495
5392 5398 5403 5407 5412 5415 5420 5424 5430 5434 5440 5443 5446 5449 5451 5453 5455 5456 5458 5460 5462 5461 5461 5462 5464 5465 5465 5465 5465 5466 5467 5467 5468 5469 5470 5471 5472 5474 5476 5478 5481 5483 5485 5487
5391 5396 5402 5407 5411 5416 5421 5428 5431 5435 5438 5440 5443 5445 5448 5450 5452 5453 5455 5456 5456 5457 5458 5461 5461 5460 5459 5460 5460 5460 5461 5461 5461 5461 5461 5462 5462 5463 5465 5467 5470 5474 5476 5478
5391 5398 5403 5408 5414 5419 5423 5427 5430 5432 5435 5438 5441 5444 5446 5447 5449 5450 5451 5452 5451 5453 5455 5456 5455 5454 5454 5454 5453 5453 5454 5454 5453 5452 5452 5451 5451 5452 5454 5455 5458 5461 5465 5468
5394 5399 5404 5409 5414 5419 5423 5426 5429 5431 5434 5436 5439 5441 5443 5444 5445 5446 5446 5447 5447 5449 5450 5449 5450 5450 5449 5448 5447 5447 5447 5447 5446 5445 5444 5443 5442 5442 5443 5444 5446 5448 5453 5458
5396 5400 5406 5410 5416 5420 5423 5426 5428 5431 5433 5435 5437 5438 5439 5440 5441 5442 5443 5443 5444 5444 5444 5443 5443 5443 5443 5442 5442 5442 5441 5440 5439 5438 5437 5436 5436 5436 5435 5436 5437 5440 5443 5447